When you browse on this site, cookies collect data to enhance your experience and personalize the content and advertising you see.
Visit our Privacy Policy to learn more. By continuing to use the site, you agree to this use of cookies and data.
  • In United Kingdom
  • List of Countries
  • For 7 days
  • Water Temperature
  • Satellite Maps
  • Weather Map
  • Weather Widgets
  • user-avatar
    Login

    Hourly Weather Montichiari

    Today, 22 May, Wednesday

    Time Temperature Precipitation Wind Pressure Humidity
    00:00 +15°C° 0.5 mm 1 mps 750 mmHg 88%
    01:00 +15°C° 0 mm 1 mps 750 mmHg 90%
    02:00 +15°C° 0.2 mm 1 mps 750 mmHg 90%
    03:00 +15°C° 0.2 mm 1 mps 751 mmHg 90%
    04:00 +13°C° 0.2 mm 0 mps 751 mmHg 91%
    05:00 +15°C° 0 mm 1 mps 751 mmHg 88%
    06:00 +15°C° 0 mm 1 mps 751 mmHg 86%
    07:00 +16°C° 0 mm 1 mps 751 mmHg 84%
    08:00 +18°C° 0 mm 1 mps 751 mmHg 79%
    09:00 +19°C° 0 mm 2 mps 751 mmHg 74%
    10:00 +20°C° 0 mm 2 mps 751 mmHg 69%
    11:00 +21°C° 0 mm 2 mps 751 mmHg 66%
    12:00 +23°C° 0 mm 2 mps 751 mmHg 63%
    13:00 +24°C° 0 mm 2 mps 751 mmHg 61%
    14:00 +24°C° 0 mm 2 mps 751 mmHg 60%
    15:00 +24°C° 0 mm 2 mps 751 mmHg 60%
    16:00 +24°C° 0 mm 2 mps 750 mmHg 59%
    17:00 +23°C° 0.4 mm 1 mps 751 mmHg 64%
    18:00 +22°C° 0.4 mm 1 mps 751 mmHg 68%
    19:00 +21°C° 0.4 mm 1 mps 751 mmHg 73%
    20:00 +20°C° 2 mm 1 mps 751 mmHg 77%
    21:00 +19°C° 2 mm 1 mps 752 mmHg 81%
    22:00 +18°C° 2 mm 2 mps 752 mmHg 84%
    23:00 +18°C° 2 mm 1 mps 752 mmHg 86%

    Tomorrow, 23 May, Thursday

    Time Temperature Precipitation Wind Pressure Humidity
    00:00 +18°C° 2 mm 1 mps 753 mmHg 88%
    01:00 +16°C° 2 mm 1 mps 753 mmHg 89%
    02:00 +16°C° 0.8 mm 1 mps 753 mmHg 89%
    03:00 +15°C° 0.8 mm 1 mps 753 mmHg 88%
    04:00 +15°C° 0.8 mm 1 mps 753 mmHg 87%
    05:00 +16°C° 0.2 mm 1 mps 753 mmHg 84%
    06:00 +16°C° 0.2 mm 1 mps 753 mmHg 81%
    07:00 +16°C° 0.2 mm 0 mps 753 mmHg 78%
    08:00 +19°C° 0 mm 1 mps 753 mmHg 75%
    09:00 +21°C° 0 mm 1 mps 753 mmHg 72%
    10:00 +22°C° 0 mm 1 mps 753 mmHg 69%
    11:00 +23°C° 0 mm 1 mps 753 mmHg 67%
    12:00 +23°C° 0 mm 2 mps 752 mmHg 64%
    13:00 +24°C° 0 mm 2 mps 752 mmHg 61%
    14:00 +24°C° 0.1 mm 2 mps 752 mmHg 61%
    15:00 +24°C° 0.1 mm 2 mps 751 mmHg 61%
    16:00 +25°C° 0.1 mm 1 mps 751 mmHg 61%
    17:00 +24°C° 0.1 mm 1 mps 751 mmHg 65%
    18:00 +23°C° 0.1 mm 1 mps 751 mmHg 68%
    19:00 +20°C° 0.1 mm 0 mps 751 mmHg 72%
    20:00 +21°C° 0.1 mm 1 mps 751 mmHg 75%
    21:00 +20°C° 0.1 mm 1 mps 752 mmHg 77%
    22:00 +19°C° 0.1 mm 1 mps 752 mmHg 79%
    23:00 +19°C° 0.6 mm 1 mps 752 mmHg 82%

    Day after tomorrow, 24 May, Friday

    Time Temperature Precipitation Wind Pressure Humidity
    00:00 +17°C° 0.6 mm 2 mps 752 mmHg 84%
    01:00 +16°C° 0.6 mm 2 mps 752 mmHg 87%
    02:00 +16°C° 0.6 mm 2 mps 752 mmHg 87%
    03:00 +16°C° 0.6 mm 2 mps 752 mmHg 88%
    04:00 +15°C° 0.6 mm 2 mps 752 mmHg 89%
    05:00 +16°C° 0.1 mm 2 mps 752 mmHg 85%
    06:00 +18°C° 0.1 mm 1 mps 752 mmHg 82%
    07:00 +19°C° 0.1 mm 1 mps 752 mmHg 79%
    08:00 +20°C° 0 mm 1 mps 752 mmHg 76%
    09:00 +21°C° 0 mm 1 mps 751 mmHg 73%
    10:00 +21°C° 0 mm 2 mps 751 mmHg 71%
    11:00 +23°C° 0.1 mm 2 mps 751 mmHg 69%
    12:00 +24°C° 0.1 mm 2 mps 751 mmHg 67%
    13:00 +24°C° 0.1 mm 2 mps 750 mmHg 65%
    14:00 +25°C° 0.1 mm 2 mps 750 mmHg 63%
    15:00 +25°C° 0.1 mm 1 mps 750 mmHg 62%
    16:00 +25°C° 0.1 mm 1 mps 749 mmHg 60%
    17:00 +24°C° 0.1 mm 1 mps 749 mmHg 64%
    18:00 +24°C° 0.1 mm 1 mps 749 mmHg 68%
    19:00 +23°C° 0.1 mm 1 mps 749 mmHg 72%
    20:00 +22°C° 0.3 mm 1 mps 750 mmHg 76%
    21:00 +19°C° 0.3 mm 2 mps 750 mmHg 80%
    22:00 +18°C° 0.3 mm 2 mps 750 mmHg 85%
    23:00 +18°C° 0.4 mm 2 mps 750 mmHg 85%

    25 May, Saturday

    Time Temperature Precipitation Wind Pressure Humidity
    00:00 +18°C° 0.4 mm 2 mps 751 mmHg 85%
    01:00 +17°C° 0.4 mm 2 mps 751 mmHg 85%
    02:00 +17°C° 0.3 mm 2 mps 751 mmHg 85%
    03:00 +18°C° 0.3 mm 1 mps 751 mmHg 85%
    04:00 +16°C° 0.3 mm 1 mps 750 mmHg 84%
    05:00 +18°C° 0.1 mm 1 mps 751 mmHg 83%
    06:00 +18°C° 0.1 mm 1 mps 751 mmHg 81%
    07:00 +17°C° 0.1 mm 0 mps 751 mmHg 79%
    08:00 +20°C° 0 mm 1 mps 751 mmHg 74%
    09:00 +21°C° 0 mm 1 mps 751 mmHg 69%
    10:00 +23°C° 0 mm 1 mps 751 mmHg 64%
    11:00 +23°C° 0 mm 1 mps 751 mmHg 62%
    12:00 +24°C° 0 mm 2 mps 751 mmHg 60%
    13:00 +25°C° 0 mm 2 mps 751 mmHg 57%
    14:00 +25°C° 0 mm 2 mps 751 mmHg 57%
    15:00 +25°C° 0 mm 2 mps 750 mmHg 56%
    16:00 +26°C° 0 mm 1 mps 750 mmHg 55%
    17:00 +25°C° 0 mm 1 mps 750 mmHg 60%
    18:00 +24°C° 0 mm 1 mps 750 mmHg 64%
    19:00 +23°C° 0 mm 1 mps 751 mmHg 68%
    20:00 +22°C° 0 mm 1 mps 751 mmHg 73%
    21:00 +20°C° 0 mm 2 mps 752 mmHg 77%
    22:00 +19°C° 0 mm 2 mps 752 mmHg 81%
    23:00 +18°C° 0.1 mm 2 mps 752 mmHg 82%

    26 May, Sunday

    Time Temperature Precipitation Wind Pressure Humidity
    00:00 +18°C° 0.1 mm 2 mps 752 mmHg 83%
    01:00 +17°C° 0.1 mm 2 mps 752 mmHg 83%
    02:00 +18°C° 0 mm 1 mps 752 mmHg 84%
    03:00 +18°C° 0 mm 1 mps 751 mmHg 84%
    04:00 +16°C° 0 mm 1 mps 751 mmHg 84%
    05:00 +18°C° 0 mm 1 mps 751 mmHg 81%
    06:00 +19°C° 0 mm 1 mps 751 mmHg 79%
    07:00 +18°C° 0 mm 0 mps 751 mmHg 76%
    08:00 +21°C° 0 mm 1 mps 751 mmHg 71%
    09:00 +22°C° 0 mm 1 mps 752 mmHg 66%
    10:00 +23°C° 0 mm 1 mps 752 mmHg 61%
    11:00 +24°C° 0 mm 1 mps 751 mmHg 59%
    12:00 +25°C° 0 mm 1 mps 751 mmHg 56%
    13:00 +26°C° 0 mm 1 mps 751 mmHg 54%
    14:00 +26°C° 0 mm 2 mps 750 mmHg 54%
    15:00 +26°C° 0 mm 2 mps 750 mmHg 54%
    16:00 +26°C° 0 mm 2 mps 750 mmHg 54%
    17:00 +25°C° 0 mm 2 mps 750 mmHg 59%
    18:00 +24°C° 0 mm 2 mps 750 mmHg 65%
    19:00 +23°C° 0 mm 2 mps 750 mmHg 70%
    20:00 +21°C° 0 mm 2 mps 750 mmHg 74%
    21:00 +19°C° 0 mm 2 mps 751 mmHg 77%
    22:00 +18°C° 0 mm 2 mps 751 mmHg 80%
    23:00 +17°C° 0 mm 2 mps 751 mmHg 81%

    27 May, Monday

    Time Temperature Precipitation Wind Pressure Humidity
    00:00 +17°C° 0 mm 2 mps 751 mmHg 81%
    01:00 +16°C° 0 mm 2 mps 751 mmHg 82%
    02:00 +16°C° 0 mm 1 mps 750 mmHg 83%
    03:00 +15°C° 0 mm 1 mps 750 mmHg 84%
    04:00 +15°C° 0 mm 1 mps 750 mmHg 85%
    05:00 +16°C° 0 mm 1 mps 750 mmHg 83%
    06:00 +16°C° 0 mm 1 mps 750 mmHg 81%
    07:00 +18°C° 0 mm 1 mps 750 mmHg 79%
    08:00 +20°C° 0 mm 1 mps 750 mmHg 74%
    09:00 +21°C° 0 mm 1 mps 750 mmHg 69%
    10:00 +22°C° 0 mm 1 mps 749 mmHg 64%
    11:00 +23°C° 0 mm 1 mps 749 mmHg 62%
    12:00 +24°C° 0 mm 1 mps 749 mmHg 59%
    13:00 +24°C° 0 mm 2 mps 748 mmHg 57%
    14:00 +25°C° 0 mm 1 mps 748 mmHg 56%
    15:00 +25°C° 0 mm 1 mps 747 mmHg 55%
    16:00 +23°C° 0 mm 0 mps 747 mmHg 54%
    17:00 +24°C° 0 mm 1 mps 747 mmHg 59%
    18:00 +24°C° 0 mm 1 mps 747 mmHg 65%
    19:00 +23°C° 0 mm 2 mps 747 mmHg 70%
    20:00 +20°C° 0 mm 2 mps 747 mmHg 76%
    21:00 +19°C° 0 mm 2 mps 747 mmHg 81%
    22:00 +17°C° 0 mm 2 mps 748 mmHg 86%
    23:00 +17°C° 0.2 mm 2 mps 748 mmHg 87%
    Show more